{"data":{"norad_id":67149,"epoch":"2026-09-20T13:45:15.114240Z","epoch_age_seconds":99727,"freshness":"FRESH","line1":"1 67149U 25301S   26263.57309160  .00000296  00000+0  67858-4 0  9992","line2":"2 67149  51.9031 293.8950 0000774  63.3110 296.7932 14.79933945 42789","mean_motion":14.79933945,"eccentricity":7.74e-5,"inclination_deg":51.9031,"raan_deg":293.895,"arg_perigee_deg":63.311,"mean_anomaly_deg":296.7932,"bstar":6.7858e-5,"rev_number":4278,"period_min":97.301640040428,"perigee_km":628.99025241515,"apogee_km":630.07503967636,"semimajor_km":7007.6696460458,"source":"CELESTRAK","updated_at":"2026-09-21T09:00:16.458750Z"}}